HK6LRQ-25 Weather Reports


time (UTC)temp
C
wind
direction
speed
KPH
gust
KPH
rain 1hr
cm
rain 24hr
cm
rain mn
cm
humidity
%
barometer
mb
20260508023643 17 133 6.4 3.2 0.00 0.00 0.00 84 1015.0
20260508020642 17 129 6.4 3.2 0.00 0.00 0.00 76 1014.0
20260508013640 17 129 6.4 3.2 0.00 0.00 0.00 83 1014.0
20260508010639 17 138 6.4 3.2 0.00 0.00 0.00 76 1013.0
20260508003638 17 138 6.4 3.2 0.15 0.00 0.00 83 1013.0
20260508000637 16 139 6.4 3.2 0.15 0.00 0.00 81 1012.0
20260507233636 20 142 4.8 1.6 0.20 0.00 0.00 81 1011.0
20260507230635 20 166 3.2 1.6 0.30 0.00 0.00 75 1010.0
20260507223634 20 166 3.2 1.6 0.20 0.00 0.00 81 1010.0
20260507220633 17 182 0.0 3.2 0.00 0.00 0.00 78 1010.0
20260507213632 21 182 0.0 3.2 0.00 0.00 0.00 78 1009.0
20260507210631 21 293 1.6 3.2 0.00 0.00 0.00 70 1009.0
20260507203630 21 293 1.6 3.2 0.00 0.00 0.00 71 1009.0
20260507200629 21 279 1.6 3.2 0.00 0.00 0.00 68 1009.0
20260507193628 21 279 1.6 3.2 0.00 0.00 0.00 66 1009.0
20260507190627 21 281 3.2 3.2 0.00 0.00 0.00 68 1010.0
20260507183626 21 281 3.2 3.2 0.00 0.00 0.00 66 1010.0
20260507180625 21 293 4.8 3.2 0.00 0.00 0.00 67 1011.0
20260507173624 21 305 4.8 3.2 0.00 0.00 0.00 67 1011.0
20260507170623 23 304 6.4 4.8 0.00 0.00 0.00 74 1013.0
20260507163622 20 304 6.4 4.8 0.00 0.00 0.00 72 1013.0
20260507160621 20 308 8.0 4.8 0.00 0.00 0.00 78 1015.0
20260507153620 19 308 8.0 4.8 0.00 0.00 0.00 73 1014.0
20260507150619 21 308 6.4 4.8 0.00 0.00 0.00 78 1015.0
20260507143617 17 308 6.4 4.8 0.00 0.00 0.00 78 1015.0
20260507140616 21 309 3.2 1.6 0.00 0.00 0.00 78 1016.0
20260507133615 15 309 3.2 1.6 0.00 0.00 0.00 79 1016.0
20260507130614 18 329 1.6 1.6 0.00 0.00 0.00 79 1016.0
20260507123614 12 329 1.6 1.6 0.00 0.00 0.00 80 1016.0
20260507120612 12 141 1.6 3.2 0.00 0.00 0.00 80 1015.0
20260507113611 12 117 3.2 3.2 0.00 0.00 0.00 80 1015.0
20260507110610 12 129 6.4 4.8 0.00 0.00 0.00 81 1015.0
20260507103609 12 129 6.4 4.8 0.00 0.00 0.00 82 1015.0
20260507100608 12 131 4.8 3.2 0.00 0.00 0.00 81 1015.0
20260507093607 12 131 4.8 3.2 0.00 0.00 0.00 82 1015.0
20260507090606 13 130 6.4 4.8 0.00 0.00 0.00 81 1015.0
20260507083605 13 130 6.4 4.8 0.00 0.00 0.00 83 1015.0
20260507080604 13 127 6.4 3.2 0.00 0.00 0.00 82 1015.0
20260507073603 13 127 6.4 3.2 0.00 0.00 0.00 84 1015.0
20260507070602 13 127 6.4 4.8 0.00 0.00 0.00 82 1015.0
20260507063600 13 127 6.4 4.8 0.00 0.00 0.00 85 1015.0
20260507060559 13 130 6.4 4.8 0.00 0.00 0.00 86 1016.0
20260507053558 13 129 6.4 4.8 0.00 0.00 0.00 86 1016.0
20260507050557 13 130 6.4 4.8 0.00 0.00 0.00 83 1016.0
20260507043556 13 130 6.4 4.8 0.00 0.00 0.00 86 1016.0
20260507040556 13 137 8.0 4.8 0.00 0.00 0.00 83 1016.0
20260507033554 14 137 8.0 4.8 0.00 0.00 0.00 86 1016.0
20260507030553 14 139 8.0 4.8 0.00 0.00 0.00 83 1016.0